Regional Weather Roundup
Issued by NWS

Home | Current Version | Previous Version | Graphics & Text | Print | Product List | Glossary On
Versions: 1 2 3 4 5 6 7 8 9 10 11 12 13 14 15 16 17 18 19 20 21 22 23 24 25 26 27 28 29 30 31 32 33 34 35 36 37 38 39 40 41 42 43 44 45 46 47 48 49 50
000
ASUS43 KMPX 020601
RWRMN
WEATHER ROUNDUP FOR MINNESOTA
NATIONAL WEATHER SERVICE TWIN CITIES/CHANHASSEN MN
100 AM CDT MON MAY 02 2016


NOTE: "FAIR" INDICATES FEW OR NO CLOUDS BELOW 12,000 FEET WITH NO
SIGNIFICANT WEATHER AND/OR OBSTRUCTIONS TO VISIBILITY. N/A MEANS
CURRENT SKY AND/OR WEATHER CONDITIONS ARE NOT AVAILABLE.

MNZ060>063-068>070-020700-
   Twin Cities Metro

CITY           SKY/WX    TMP DP  RH WIND       PRES   REMARKS
TWIN CITIES    CLEAR     50  35  56 N3        30.12R
6HR MIN TEMP:  49; 6HR MAX TEMP:  62;

ST PAUL        CLEAR     48  36  63 NW5       30.13R
CRYSTAL        CLEAR     46  35  65 NW3       30.11S
BLAINE         CLEAR     46  37  71 CALM      30.12S
EDEN PRAIRIE   CLEAR     50  34  54 N5        30.11S
6HR MIN TEMP:  50; 6HR MAX TEMP:  63;

SOUTH ST PAUL  CLEAR     51  32  49 CALM      30.12R
LAKE ELMO      FAIR      45  34  65 CALM      30.12S
$$
MNZ001>005-007-008-013>017-022>024-027-028-020700-
   Northwest Minnesota

CITY           SKY/WX    TMP DP  RH WIND       PRES   REMARKS
BEMIDJI        CLEAR     38  29  70 CALM      30.12S
HALLOCK        CLOUDY    46  30  53 SE7       30.09S
ROSEAU         PTCLDY    43  34  70 S6        30.11F
WARROAD        PTCLDY    41  36  81 CALM      30.11F
THIEF RVR FALL MOCLDY    45  25  45 CALM      30.12F
CROOKSTON      MOCLDY    45  30  57 S8        30.11F
FOSSTON        CLEAR     36  28  75 CALM      30.12F
DETROIT LAKES  CLEAR     45  37  76 CALM      30.13F
MOORHEAD       CLEAR     46  30  53 CALM      30.12F HAZE
PARK RAPIDS    CLEAR     42  31  64 CALM      30.12S
MAHNOMEN       FAIR      43  31  61 CALM      30.12F
$$
MNZ006-009>011-018-025>026-020700-
   North Central Minnesota

CITY           SKY/WX    TMP DP  RH WIND       PRES   REMARKS
BAUDETTE       CLOUDY    36  31  82 S3        30.11F
FLAG ISLAND    CLOUDY    45  30  57 CALM      30.09F
INTL FALLS     CLEAR     31  28  89 CALM      30.11F
6HR MIN TEMP:  30; 6HR MAX TEMP:  59;

WASKISH        CLEAR     37  36  93 CALM      30.11F
BIG FORK       CLEAR     34  28  80 CALM      30.12F
LONGVILLE      CLEAR     36  32  87 CALM      30.12S
GRAND RAPIDS   PTCLDY    37  28  70 CALM      30.14S
CRANE LAKE     CLEAR     28  27  93 CALM      30.15S
ORR            PTCLDY    43  28  56 CALM      30.11S
COOK           CLEAR     34  28  80 CALM      30.13F
WALKER         FAIR      40  31  72 W5        30.12S
$$
MNZ012-019>021-037-020700-
   Northeast Minnesota

CITY           SKY/WX    TMP DP  RH WIND       PRES   REMARKS
DULUTH         CLEAR     39  31  72 CALM      30.13F
6HR MIN TEMP:  38; 6HR MAX TEMP:  50;

ELY            CLEAR     34  30  86 CALM      30.13S
HIBBING        CLEAR     30  28  92 CALM      30.14R
EVELETH        CLEAR     32  30  93 CALM      30.15S
DULUTH HARBOR  CLEAR     37  36  93 N3        30.16S
TWO HARBORS    CLEAR     36  30  80 N3        30.13S
SILVER BAY     CLEAR     30  28  93 CALM      30.13S
GRAND MARAIS     N/A     34  31  88 N5        30.15F WCI  30
G MARAIS ARPRT CLEAR     28  25  86 N3        30.14S
$$
MNZ029>031-032-039>041-046>048-054>057-064-020700-
   West Central Minnesota

CITY           SKY/WX    TMP DP  RH WIND       PRES   REMARKS
FERGUS FALLS   CLEAR     48  30  49 E5        30.11S
WHEATON        CLEAR     46  37  71 CALM      30.15S
MORRIS         CLEAR     45  30  57 CALM      30.13S
ALEXANDRIA     CLEAR     45  30  55 SW3       30.14S
ELBOW LAKE     FAIR      49  36  61 SE3       30.13S
WADENA         CLEAR     37  30  75 CALM      30.12S
GLENWOOD       CLEAR     46  30  53 SW3       30.14S
APPLETON       CLEAR     41  36  81 CALM      30.14R
BENSON         CLEAR     41  32  70 CALM      30.14S
ORTONVILLE     CLEAR     46  37  71 NW3       30.14S
MADISON        CLEAR     43  34  70 W3        30.14F
WILLMAR        FAIR      43  36  75 CALM      30.15S
$$
MNZ033>034-036-042>043-049>051-058-059-020700-
   Central Minnesota

CITY           SKY/WX    TMP DP  RH WIND       PRES   REMARKS
ST CLOUD       CLEAR     39  32  76 CALM      30.13S
6HR MIN TEMP:  39; 6HR MAX TEMP:  60;

SAUK CENTRE    FAIR      38  32  80 CALM      30.14R
PAYNESVILLE    CLEAR     37  32  83 CALM      30.14S
AITKIN         CLEAR     37  34  87 CALM      30.12S
PINE RIVER     CLEAR     37  30  75 CALM      30.16S
BRAINERD       CLEAR     39  32  76 CALM      30.13S
STAPLES        CLEAR     37  30  75 CALM      30.13S
LONG PRAIRIE   FAIR      39  34  81 CALM      30.14S
LITTLE FALLS   CLEAR     37  32  81 CALM      30.14S
LITCHFIELD     CLEAR     43  39  87 CALM      30.14S
BUFFALO        CLEAR     43  35  72 CALM      30.14S
MAPLE LAKE     CLEAR     40  36  84 CALM      30.14S
HUTCHINSON     CLOUDY    43  36  76 CALM      30.14S
$$
MNZ037-044-045-052-053-020700-
   East Central Minnesota

CITY           SKY/WX    TMP DP  RH WIND       PRES   REMARKS
PRINCETON      CLEAR     39  34  81 CALM      30.13S
MORA           CLEAR     34  32  93 CALM      30.15S
CAMBRIDGE      CLEAR     39  30  70 CALM      30.11S
RUSH CITY      CLEAR     42  33  70 CALM      30.13S
MOOSE LAKE     CLEAR     36  32  87 NE3       30.13S
HINCKLEY       FAIR      37  34  87 N5        30.14R
CLOQUET        CLEAR     34  30  86 CALM      30.14S
MCGREGOR       CLEAR     39  34  81 E6        30.14S
$$
MNZ071>073-080-081-089-090-097-098-020700-
   Southwest Minnesota

CITY           SKY/WX    TMP DP  RH WIND       PRES   REMARKS
MONTEVIDEO     CLEAR     45  30  57 W3        30.15F
GRANITE FALLS  CLEAR     41  33  73 CALM      30.16S
CANBY          CLEAR     43  36  76 SW5       30.16F
MARSHALL       CLEAR     40  33  76 W6        30.15S
REDWOOD FALLS  CLEAR     46  34  62 CALM      30.14S
OLIVIA         CLEAR     41  32  70 CALM      30.13S
PIPESTONE      CLEAR     45  34  65 CALM      30.15S
WINDOM         CLEAR     43  37  81 CALM      30.15S
WORTHINGTON    CLEAR     40  36  86 SW3       30.16S
JACKSON        MOCLDY    43  36  75 W6        30.15S
TRACY          CLEAR     43  35  73 SW7       30.15S
SLAYTON        CLEAR     39  36  89 CALM      30.16S
$$
MNZ065>067-074>077-082>085-091>093-020700-
   South Central Minnesota

CITY           SKY/WX    TMP DP  RH WIND       PRES   REMARKS
MANKATO        CLEAR     46  34  61 CALM      30.13R
NEW ULM        CLEAR     43  36  75 CALM      30.13S
ST JAMES       CLEAR     37  34  87 W5        30.14F
FAIRMONT       MOCLDY    46  34  61 CALM      30.13S
GLENCOE        CLEAR     44  38  79 CALM      30.13R
FARIBAULT      CLEAR     41  36  81 CALM      30.12R
OWATONNA       CLEAR     43  39  87 CALM      30.13R
WASECA         CLEAR     43  37  81 CALM      30.14R
ALBERT LEA     CLEAR     45  43  93 SW1       30.12S
$$
MNZ078>079-086>088-094>096-020700-
   Southeast Minnesota

CITY           SKY/WX    TMP DP  RH WIND       PRES   REMARKS
ROCHESTER      CLOUDY    46  41  82 W6        30.12R
6HR MIN TEMP:  44; 6HR MAX TEMP:  53;

RED WING       CLEAR     48  36  61 CALM      30.10R
STANTON        CLEAR     41  36  82 CALM      30.11R
DODGE CENTER   PTCLDY    43  39  87 W7        30.12R
WINONA         CLOUDY    48  45  87 CALM      30.12S
AUSTIN         MOCLDY    45  39  81 CALM      30.12S
PRESTON        CLOUDY    44  39  83 W3        30.12R
$$
ABBREVIATIONS USED IN REMARKS
   TC - TEMPERATURES IN CELSIUS
  WCI - WIND CHILL INDEX
   HX - HEAT INDEX
  VSB - VISIBILITY
$$



USA.gov is the U.S. government's official web portal to all federal, state and local government web resources and services.